Weather in Ormoc

Philippines     11°01′20″N   124°36′21″E
temp.,
°C
wind,
m/s
gust,
m/s
humid.,
%
clouds,
%
prec.,
mm/h
press.,
hPa
HPBL,
m
21 april, wed
wed2123:00+26ssw4787100 0.4 1008368
02:00+26ssw4787100 0.6 1007408
05:00+26ssw588599 0.1 1007532
08:00+28ssw578085 0.3 1009854
11:00+29ssw557493 0.5 1009922
14:00+30s466785 0.8 1006891
17:00+28ssw4877100 0.3 1006276
20:00+28ssw497793 0.3 1008339
22 april, thu
thu2223:00+26ssw3685100 0.2 1008295
02:00+26ssw4781100 0.2 1007505
05:00+26s478279 0.0 1007505
08:00+28s567597 0.1 1009925
11:00+29s567056 0.1 10081028
14:00+30s466539 0.2 1006905
17:00+28ssw487897 0.4 1005305
20:00+27ssw3583100 1.2 1008166
23 april, fri
fri2323:00+26sw248496 0.3 1008195
02:00+26ssw2385100 0.6 1007262
05:00+26ssw4685100 0.1 1007387
08:00+28s4575100 0.2 1009890
11:00+29ssw447098 0.1 10081043
14:00+29s2272100 0.7 1006662
17:00+27ese2281100 0.6 1006140
20:00+26ene228498 0.6 100863
24 april, sat
sat2423:00+25ene128635 0.9 100891
02:00+24ne0192100 3.7 100740
05:00+24nne1189100 0.8 100885
08:00+27nne1182100 1.5 1011225
11:00+29ssw026999 1.1 1010753
14:00+29w127078 2.4 1008713
17:00+28nnw237697 0.3 1008441
20:00+25n238486 0.9 101099
25 april, sun
sun2523:00+24n228838 2.2 101061
02:00+24n2288100 3.9 1009108
05:00+24n248896 1.6 1009153
08:00+27nw247776 1.9 1011679
11:00+29wnw3464100 0.1 10111250
14:00+30wnw336015 0.1 10081098
17:00+28nnw24695 0.0 1009319
20:00+25n23825 0.0 101091